San Antonio, TX

10:03 PM CST on December 04, 2016 (GMT -0600)
San Antonio International

Weather History for KSAT - November, 2013

Change the Weather History Date:

Sunday, November 3, 2013

  Actual Average Record
Temperature  
Mean Temperature 60 °F 66 °F  
Max Temperature 73 °F 77 °F 86 °F (1994)
Min Temperature 46 °F 55 °F 26 °F (1966)
Degree Days  
Heating Degree Days 5 3  
Month to date heating degree days 5 9  
Since 1 July heating degree days 16 42  
Cooling Degree Days 0 4  
Month to date cooling degree days 4 12  
Year to date cooling degree days 3437 3067  
Growing Degree Days 10 (Base 50)    
Moisture  
Dew Point 41 °F    
Average Humidity 54    
Maximum Humidity 82    
Minimum Humidity 25    
Precipitation  
Precipitation 0.00 in 0.09 in 1.07 in (1946)
Month to date precipitation 0.00 0.28  
Year to date precipitation 29.95 28.36  
Snow  
Snow 0.00 in - - ()
Month to date snowfall 0.0  
Since 1 July snowfall 0.0  
Since 1 September snowfall 0.0  
Snow Depth 0.00 in    
Sea Level Pressure  
Sea Level Pressure 30.10 in    
Wind  
Wind Speed 6 mph (ESE)    
Max Wind Speed 17 mph    
Max Gust Speed 21 mph    
Visibility 10 miles    
Events      
T = Trace of Precipitation, MM = Missing Value Source: NWS Daily Summary

Daily Weather History Graph

Daily Weather History Graph

Search for Another Location

Airport or City:

Trip Planner

Search our weather history database for the weather conditions in past years. The results will help you decide how hot, cold, wet, or windy it might be!

Date:

Astronomy

Nov. 03, 2013 Rise Set
Actual Time 6:48 AM CST 5:45 PM CST
Civil Twilight 6:24 AM CST 6:10 PM CST
Nautical Twilight 5:55 AM CST 6:38 PM CST
Astronomical Twilight 5:27 AM CST 7:06 PM CST
Moon 6:53 AM CST (11/3) 6:04 PM CST (11/3)
Length of Visible Light 11h 46m
Length of Day
10h 56m
New Moon, 0% of the Moon is Illuminated
Nov 3
New Moon
Nov 9
First Quarter
Nov 17
Full
Nov 25
Last Quarter
Dec 2
New

Hourly Weather History & Observations

Time (CST) Temp. Dew Point Humidity Pressure Visibility Wind Dir Wind Speed Gust Speed Precip Events Conditions
12:51 AM 55.9 °F 39.0 °F 53% 30.19 in 10.0 mi Calm Calm - N/A   Clear
1:51 AM 50.0 °F 41.0 °F 71% 30.18 in 10.0 mi Calm Calm - N/A   Clear
1:51 AM 48.9 °F 42.1 °F 77% 30.17 in 10.0 mi NW 4.6 mph - N/A   Clear
2:51 AM 48.0 °F 42.1 °F 80% 30.16 in 10.0 mi WNW 5.8 mph - N/A   Clear
3:51 AM 46.9 °F 41.0 °F 80% 30.15 in 10.0 mi NNW 3.5 mph - N/A   Clear
4:51 AM 48.0 °F 42.1 °F 80% 30.14 in 10.0 mi Calm Calm - N/A   Clear
5:51 AM 48.0 °F 39.9 °F 74% 30.15 in 10.0 mi Calm Calm - N/A   Clear
6:51 AM 46.9 °F 41.0 °F 80% 30.14 in 10.0 mi Calm Calm - N/A   Clear
7:51 AM 53.1 °F 43.0 °F 69% 30.16 in 10.0 mi Calm Calm - N/A   Clear
8:51 AM 57.9 °F 39.0 °F 49% 30.17 in 10.0 mi ESE 10.4 mph - N/A   Clear
9:51 AM 62.1 °F 37.9 °F 41% 30.16 in 10.0 mi ESE 13.8 mph - N/A   Clear
10:51 AM 64.9 °F 37.0 °F 36% 30.15 in 10.0 mi SE 11.5 mph - N/A   Partly Cloudy
11:51 AM 66.9 °F 36.0 °F 32% 30.12 in 10.0 mi ESE 8.1 mph - N/A   Scattered Clouds
12:51 PM 69.1 °F 37.9 °F 32% 30.08 in 10.0 mi ESE 10.4 mph - N/A   Scattered Clouds
1:51 PM 71.1 °F 37.0 °F 29% 30.03 in 10.0 mi SE 10.4 mph - N/A   Scattered Clouds
2:51 PM 73.0 °F 35.1 °F 25% 30.02 in 10.0 mi SE 9.2 mph - N/A   Scattered Clouds
3:51 PM 72.0 °F 35.1 °F 26% 30.00 in 10.0 mi ESE 8.1 mph - N/A   Scattered Clouds
4:51 PM 69.1 °F 37.9 °F 32% 30.01 in 10.0 mi SE 10.4 mph - N/A   Mostly Cloudy
5:51 PM 66.9 °F 39.9 °F 37% 30.02 in 10.0 mi ESE 3.5 mph - N/A   Mostly Cloudy
6:51 PM 66.0 °F 39.9 °F 38% 30.03 in 10.0 mi Calm Calm - N/A   Mostly Cloudy
7:51 PM 64.9 °F 44.1 °F 47% 30.05 in 10.0 mi Calm Calm - N/A   Mostly Cloudy
8:51 PM 64.9 °F 48.9 °F 56% 30.04 in 10.0 mi SE 9.2 mph - N/A   Overcast
9:51 PM 64.0 °F 52.0 °F 65% 30.01 in 10.0 mi SE 12.7 mph - N/A   Mostly Cloudy
10:51 PM 64.9 °F 53.1 °F 65% 30.01 in 10.0 mi SSE 10.4 mph - N/A   Overcast